Location: Asheville, NC
(35.6000°N, 82.5500°W)
Time: 07:06:49
(UTC-05:00)

Vanguard 2 - Pass Details

Date: 14 February 2018
Orbit: 553 x 2939 km, 32.9° (Epoch: 18 February)

Event Time Altitude Azimuth Distance (km) Brightness Sun altitude
Rises 18:09:15 0° 222° (SW) 5,345 12.9 -0.4°
Reaches altitude 10° 18:13:56 10° 212° (SSW) 3,900 11.9 -1.4°
Maximum altitude 18:21:33 27° 160° (SSE) 2,092 9.7 -2.9°
Drops below altitude 10° 18:26:45 10° 103° (ESE) 2,587 9.7 -3.9°
Enters shadow 18:28:20 - 94° (E) 3,027 10.0 -4.2°
Sets 18:29:12 0° 90° (E) 3,292 - -4.4°
